timestamp, 		tick, 	maxbdip, 	maxindex, 	minbdip, 	minindex, 	change,	steepness, 	maxaftdip, 	maxaftidx, 	minaftdip, 	minaftindex, 	rise, 	alert
13042021_19:42:46,	0.070,	0.070,		575,		0.068,		-1445,		-0.15,	-0.12,		1000000.00,	-1,		1000000.00,		-1,		0.00,
13042021_19:42:57,	0.070,	0.070,		574,		0.068,		-1446,		-0.15,	-0.02,		1000000.00,	-1,		1000000.00,		-1,		0.00,
13042021_19:43:07,	0.070,	0.070,		573,		0.068,		-1447,		-0.29,	0.05,		1000000.00,	-1,		1000000.00,		-1,		0.00,
13042021_19:43:17,	0.070,	0.070,		572,		0.068,		-1448,		-0.29,	0.13,		1000000.00,	-1,		1000000.00,		-1,		0.00,
13042021_19:43:28,	0.070,	0.070,		571,		0.068,		-1449,		-0.16,	0.08,		1000000.00,	-1,		1000000.00,		-1,		0.00,
13042021_19:43:38,	0.070,	0.070,		570,		0.068,		-1450,		-0.42,	0.07,		1000000.00,	-1,		1000000.00,		-1,		0.00,
13042021_19:43:50,	0.070,	0.070,		569,		0.068,		-1451,		-0.39,	0.12,		1000000.00,	-1,		1000000.00,		-1,		0.00,
13042021_19:44:01,	0.070,	0.070,		568,		0.068,		-1452,		-0.35,	0.15,		1000000.00,	-1,		1000000.00,		-1,		0.00,
13042021_19:44:11,	0.070,	0.070,		567,		0.068,		-1453,		-0.13,	-0.05,		1000000.00,	-1,		1000000.00,		-1,		0.00,
13042021_19:44:22,	0.070,	0.070,		566,		0.068,		-1454,		-0.13,	-0.28,		1000000.00,	-1,		1000000.00,		-1,		0.00,
13042021_19:44:32,	0.070,	0.070,		565,		0.068,		-1455,		-0.40,	-0.11,		1000000.00,	-1,		1000000.00,		-1,		0.00,
13042021_19:44:43,	0.070,	0.070,		564,		0.068,		-1456,		-0.40,	0.17,		1000000.00,	-1,		1000000.00,		-1,		0.00,
13042021_19:44:53,	0.070,	0.070,		563,		0.068,		-1457,		-0.17,	0.16,		1000000.00,	-1,		1000000.00,		-1,		0.00,
13042021_19:45:03,	0.070,	0.070,		562,		0.068,		-1458,		-0.17,	-0.10,		1000000.00,	-1,		1000000.00,		-1,		0.00,
13042021_19:45:14,	0.070,	0.070,		561,		0.068,		-1459,		-0.35,	-0.15,		1000000.00,	-1,		1000000.00,		-1,		0.00,
13042021_19:45:24,	0.070,	0.070,		560,		0.068,		-1460,		-0.34,	0.06,		1000000.00,	-1,		1000000.00,		-1,		0.00,
13042021_19:45:35,	0.070,	0.070,		559,		0.068,		-1461,		-0.13,	0.07,		1000000.00,	-1,		1000000.00,		-1,		0.00,
13042021_19:45:46,	0.070,	0.070,		558,		0.068,		-1462,		-0.33,	-0.02,		1000000.00,	-1,		1000000.00,		-1,		0.00,
13042021_19:45:57,	0.070,	0.070,		557,		0.068,		-1463,		-0.26,	-0.05,		1000000.00,	-1,		1000000.00,		-1,		0.00,
13042021_19:46:07,	0.070,	0.070,		556,		0.068,		-1464,		-0.02,	-0.10,		1000000.00,	-1,		1000000.00,		-1,		0.00,
13042021_19:46:18,	0.070,	0.070,		555,		0.068,		-1465,		-0.00,	-0.22,		1000000.00,	-1,		1000000.00,		-1,		0.00,
13042021_19:46:28,	0.070,	0.070,		554,		0.068,		-1466,		-0.00,	-0.29,		1000000.00,	-1,		1000000.00,		-1,		0.00,
13042021_19:46:38,	0.070,	0.070,		553,		0.068,		-1467,		-0.00,	-0.14,		1000000.00,	-1,		1000000.00,		-1,		0.00,
13042021_19:46:49,	0.070,	0.070,		552,		0.068,		-1468,		-0.00,	-0.01,		1000000.00,	-1,		1000000.00,		-1,		0.00,
13042021_19:46:59,	0.070,	0.070,		551,		0.068,		-1469,		-0.18,	0.09,		1000000.00,	-1,		1000000.00,		-1,		0.00,
13042021_19:47:10,	0.070,	0.070,		550,		0.068,		-1470,		-0.19,	0.18,		1000000.00,	-1,		1000000.00,		-1,		0.00,
13042021_19:47:20,	0.070,	0.070,		549,		0.068,		-1471,		-0.24,	0.22,		1000000.00,	-1,		1000000.00,		-1,		0.00,
13042021_19:47:30,	0.070,	0.070,		548,		0.068,		-1472,		-0.22,	0.14,		1000000.00,	-1,		1000000.00,		-1,		0.00,
13042021_19:47:41,	0.070,	0.070,		547,		0.068,		-1473,		-0.19,	0.02,		1000000.00,	-1,		1000000.00,		-1,		0.00,
13042021_19:47:53,	0.070,	0.070,		546,		0.068,		-1474,		-0.00,	-0.12,		1000000.00,	-1,		1000000.00,		-1,		0.00,
13042021_19:48:04,	0.070,	0.070,		545,		0.068,		-1475,		-0.19,	-0.13,		1000000.00,	-1,		1000000.00,		-1,		0.00,
13042021_19:48:14,	0.070,	0.070,		544,		0.068,		-1476,		-0.19,	-0.01,		1000000.00,	-1,		1000000.00,		-1,		0.00,
13042021_19:48:24,	0.070,	0.070,		543,		0.068,		-1477,		-0.00,	-0.00,		1000000.00,	-1,		1000000.00,		-1,		0.00,
13042021_19:48:35,	0.070,	0.070,		542,		0.068,		-1478,		-0.00,	-0.10,		1000000.00,	-1,		1000000.00,		-1,		0.00,
13042021_19:48:45,	0.070,	0.070,		541,		0.068,		-1479,		-0.03,	-0.18,		1000000.00,	-1,		1000000.00,		-1,		0.00,
13042021_19:48:56,	0.070,	0.070,		540,		0.068,		-1480,		-0.40,	0.12,		1000000.00,	-1,		1000000.00,		-1,		0.00,
13042021_19:49:06,	0.070,	0.070,		719,		0.068,		-1481,		0.19,	0.09,		1000000.00,	-1,		1000000.00,		-1,		0.00,
13042021_19:49:16,	0.070,	0.070,		718,		0.068,		-1482,		-0.46,	0.06,		1000000.00,	-1,		1000000.00,		-1,		0.00,
13042021_19:49:27,	0.070,	0.070,		717,		0.068,		-1483,		-0.49,	0.17,		1000000.00,	-1,		1000000.00,		-1,		0.00,
13042021_19:49:37,	0.070,	0.070,		716,		0.068,		-1484,		-0.53,	0.30,		1000000.00,	-1,		1000000.00,		-1,		0.00,
13042021_19:49:49,	0.070,	0.070,		715,		0.068,		-1485,		-0.57,	0.30,		1000000.00,	-1,		1000000.00,		-1,		0.00,
13042021_19:50:00,	0.070,	0.070,		714,		0.068,		-1486,		-0.56,	-0.02,		1000000.00,	-1,		1000000.00,		-1,		0.00,
13042021_19:50:10,	0.070,	0.070,		713,		0.068,		-1487,		-0.25,	-0.20,		1000000.00,	-1,		1000000.00,		-1,		0.00,
13042021_19:50:20,	0.070,	0.070,		712,		0.068,		-1488,		-0.41,	-0.28,		1000000.00,	-1,		1000000.00,		-1,		0.00,
13042021_19:50:31,	0.070,	0.070,		711,		0.068,		-1489,		-0.25,	-0.26,		1000000.00,	-1,		1000000.00,		-1,		0.00,
13042021_19:50:41,	0.070,	0.070,		710,		0.068,		-1490,		-0.29,	-0.14,		1000000.00,	-1,		1000000.00,		-1,		0.00,
13042021_19:50:52,	0.070,	0.070,		709,		0.068,		-1491,		-0.29,	-0.04,		1000000.00,	-1,		1000000.00,		-1,		0.00,
13042021_19:51:02,	0.070,	0.070,		708,		0.068,		-1492,		-0.20,	-0.08,		1000000.00,	-1,		1000000.00,		-1,		0.00,
13042021_19:51:12,	0.070,	0.070,		707,		0.068,		-1493,		-0.20,	-0.07,		1000000.00,	-1,		1000000.00,		-1,		0.00,
13042021_19:51:23,	0.070,	0.070,		706,		0.068,		-1494,		-0.20,	-0.09,		1000000.00,	-1,		1000000.00,		-1,		0.00,
13042021_19:51:34,	0.070,	0.070,		719,		0.068,		-1495,		0.21,	-0.28,		1000000.00,	-1,		1000000.00,		-1,		0.00,
13042021_19:51:45,	0.070,	0.070,		718,		0.068,		-1496,		-0.18,	-0.28,		1000000.00,	-1,		1000000.00,		-1,		0.00,
13042021_19:51:55,	0.070,	0.070,		717,		0.068,		-1497,		0.06,	-0.25,		1000000.00,	-1,		1000000.00,		-1,		0.00,
13042021_19:52:06,	0.070,	0.070,		716,		0.068,		-1498,		0.02,	-0.16,		1000000.00,	-1,		1000000.00,		-1,		0.00,
13042021_19:52:16,	0.070,	0.070,		715,		0.068,		-1499,		-0.03,	-0.11,		1000000.00,	-1,		1000000.00,		-1,		0.00,
13042021_19:52:26,	0.070,	0.070,		714,		0.068,		-1500,		-0.07,	-0.14,		1000000.00,	-1,		1000000.00,		-1,		0.00,
13042021_19:52:37,	0.070,	0.070,		713,		0.068,		-1501,		-0.03,	-0.01,		1000000.00,	-1,		1000000.00,		-1,		0.00,
13042021_19:52:47,	0.070,	0.070,		712,		0.068,		-1502,		-0.02,	-0.04,		1000000.00,	-1,		1000000.00,		-1,		0.00,
13042021_19:52:58,	0.070,	0.070,		711,		0.068,		-1503,		-0.31,	0.10,		1000000.00,	-1,		1000000.00,		-1,		0.00,
13042021_19:53:08,	0.070,	0.070,		710,		0.068,		-1504,		-0.32,	0.27,		1000000.00,	-1,		1000000.00,		-1,		0.00,
13042021_19:53:19,	0.070,	0.070,		719,		0.068,		-1505,		0.05,	0.11,		1000000.00,	-1,		1000000.00,		-1,		0.00,
13042021_19:53:30,	0.070,	0.070,		718,		0.068,		-1506,		-0.01,	-0.20,		1000000.00,	-1,		1000000.00,		-1,		0.00,
13042021_19:53:41,	0.070,	0.070,		717,		0.068,		-1507,		0.02,	-0.35,		1000000.00,	-1,		1000000.00,		-1,		0.00,
13042021_19:53:52,	0.071,	0.070,		719,		0.068,		-1508,		0.17,	-0.27,		1000000.00,	-1,		1000000.00,		-1,		0.00,
13042021_19:54:02,	0.071,	0.070,		718,		0.068,		-1509,		0.13,	-0.20,		1000000.00,	-1,		1000000.00,		-1,		0.00,
13042021_19:54:13,	0.070,	0.070,		717,		0.068,		-1510,		-0.19,	-0.06,		1000000.00,	-1,		1000000.00,		-1,		0.00,
13042021_19:54:23,	0.070,	0.070,		716,		0.068,		-1511,		-0.21,	0.18,		1000000.00,	-1,		1000000.00,		-1,		0.00,
13042021_19:54:34,	0.070,	0.070,		715,		0.068,		-1512,		-0.08,	0.19,		1000000.00,	-1,		1000000.00,		-1,		0.00,
13042021_19:54:44,	0.070,	0.071,		714,		0.068,		-1513,		-0.16,	-0.01,		1000000.00,	-1,		1000000.00,		-1,		0.00,
13042021_19:54:55,	0.070,	0.071,		713,		0.068,		-1514,		-0.16,	-0.12,		1000000.00,	-1,		1000000.00,		-1,		0.00,
13042021_19:55:05,	0.070,	0.071,		712,		0.068,		-1515,		-0.26,	0.02,		1000000.00,	-1,		1000000.00,		-1,		0.00,
13042021_19:55:15,	0.071,	0.071,		719,		0.068,		-1516,		0.05,	-0.03,		1000000.00,	-1,		1000000.00,		-1,		0.00,
13042021_19:55:26,	0.070,	0.071,		718,		0.068,		-1517,		-0.05,	-0.17,		1000000.00,	-1,		1000000.00,		-1,		0.00,
13042021_19:55:37,	0.070,	0.071,		717,		0.068,		-1518,		-0.13,	-0.15,		1000000.00,	-1,		1000000.00,		-1,		0.00,
13042021_19:55:49,	0.070,	0.071,		716,		0.068,		-1519,		-0.14,	-0.00,		1000000.00,	-1,		1000000.00,		-1,		0.00,
13042021_19:55:59,	0.071,	0.071,		719,		0.068,		-1520,		0.18,	-0.07,		1000000.00,	-1,		1000000.00,		-1,		0.00,
13042021_19:56:10,	0.071,	0.071,		719,		0.068,		-1521,		0.17,	-0.34,		1000000.00,	-1,		1000000.00,		-1,		0.00,
13042021_19:56:20,	0.071,	0.071,		718,		0.068,		-1522,		-0.12,	-0.28,		1000000.00,	-1,		1000000.00,		-1,		0.00,
13042021_19:56:30,	0.071,	0.071,		717,		0.068,		-1523,		0.09,	-0.10,		1000000.00,	-1,		1000000.00,		-1,		0.00,
13042021_19:56:41,	0.071,	0.071,		716,		0.068,		-1524,		0.01,	0.00,		1000000.00,	-1,		1000000.00,		-1,		0.00,
13042021_19:56:51,	0.071,	0.071,		719,		0.068,		-1525,		0.11,	-0.16,		1000000.00,	-1,		1000000.00,		-1,		0.00,
13042021_19:57:02,	0.071,	0.071,		719,		0.068,		-1526,		0.25,	-0.34,		1000000.00,	-1,		1000000.00,		-1,		0.00,
13042021_19:57:12,	0.071,	0.071,		718,		0.068,		-1527,		-0.02,	-0.23,		1000000.00,	-1,		1000000.00,		-1,		0.00,
13042021_19:57:23,	0.071,	0.071,		719,		0.068,		-1528,		0.18,	-0.20,		1000000.00,	-1,		1000000.00,		-1,		0.00,
13042021_19:57:34,	0.071,	0.071,		718,		0.068,		-1529,		-0.11,	-0.03,		1000000.00,	-1,		1000000.00,		-1,		0.00,
13042021_19:57:45,	0.071,	0.071,		719,		0.068,		-1530,		0.08,	-0.06,		1000000.00,	-1,		1000000.00,		-1,		0.00,
13042021_19:57:56,	0.071,	0.071,		718,		0.068,		-1531,		-0.28,	-0.00,		1000000.00,	-1,		1000000.00,		-1,		0.00,
13042021_19:58:06,	0.071,	0.071,		717,		0.068,		-1532,		-0.51,	0.28,		1000000.00,	-1,		1000000.00,		-1,		0.00,
13042021_19:58:17,	0.071,	0.071,		716,		0.068,		-1533,		-0.57,	0.43,		1000000.00,	-1,		1000000.00,		-1,		0.00,
13042021_19:58:27,	0.071,	0.071,		715,		0.068,		-1534,		-0.56,	0.42,		1000000.00,	-1,		1000000.00,		-1,		0.00,
13042021_19:58:38,	0.071,	0.071,		714,		0.068,		-1535,		-0.36,	0.04,		1000000.00,	-1,		1000000.00,		-1,		0.00,
13042021_19:58:48,	0.071,	0.071,		713,		0.068,		-1536,		-0.18,	-0.29,		1000000.00,	-1,		1000000.00,		-1,		0.00,
13042021_19:58:58,	0.071,	0.071,		712,		0.068,		-1537,		-0.00,	-0.48,		1000000.00,	-1,		1000000.00,		-1,		0.00,
13042021_19:59:09,	0.071,	0.071,		719,		0.068,		-1538,		0.32,	-0.66,		1000000.00,	-1,		1000000.00,		-1,		0.00,
13042021_19:59:19,	0.071,	0.071,		718,		0.068,		-1539,		0.02,	-0.54,		1000000.00,	-1,		1000000.00,		-1,		0.00,
13042021_19:59:30,	0.071,	0.071,		717,		0.068,		-1540,		-0.19,	-0.17,		1000000.00,	-1,		1000000.00,		-1,		0.00,
13042021_19:59:41,	0.071,	0.071,		716,		0.068,		-1541,		-0.10,	0.11,		1000000.00,	-1,		1000000.00,		-1,		0.00,
13042021_19:59:52,	0.071,	0.071,		715,		0.068,		-1542,		-0.22,	0.14,		1000000.00,	-1,		1000000.00,		-1,		0.00,
13042021_20:00:03,	0.071,	0.071,		714,		0.068,		-1543,		-0.56,	0.12,		1000000.00,	-1,		1000000.00,		-1,		0.00,
13042021_20:00:13,	0.071,	0.071,		713,		0.068,		-1544,		-0.56,	0.26,		1000000.00,	-1,		1000000.00,		-1,		0.00,
13042021_20:00:23,	0.071,	0.071,		712,		0.068,		-1545,		-0.56,	0.30,		1000000.00,	-1,		1000000.00,		-1,		0.00,
13042021_20:00:34,	0.071,	0.071,		711,		0.068,		-1546,		-0.56,	0.14,		1000000.00,	-1,		1000000.00,		-1,		0.00,
13042021_20:00:44,	0.071,	0.071,		710,		0.068,		-1547,		-0.56,	0.00,		1000000.00,	-1,		1000000.00,		-1,		0.00,
13042021_20:00:54,	0.071,	0.071,		709,		0.068,		-1548,		-0.55,	-0.00,		1000000.00,	-1,		1000000.00,		-1,		0.00,
13042021_20:01:05,	0.071,	0.071,		708,		0.068,		-1549,		-0.77,	0.10,		1000000.00,	-1,		1000000.00,		-1,		0.00,
13042021_20:01:15,	0.071,	0.071,		707,		0.068,		-1550,		-0.77,	0.21,		1000000.00,	-1,		1000000.00,		-1,		0.00,
13042021_20:01:26,	0.071,	0.071,		706,		0.068,		-1551,		-0.45,	0.05,		1000000.00,	-1,		1000000.00,		-1,		0.00,
13042021_20:01:37,	0.071,	0.071,		705,		0.068,		-1552,		-0.38,	-0.25,		1000000.00,	-1,		1000000.00,		-1,		0.00,
13042021_20:01:49,	0.071,	0.071,		704,		0.068,		-1553,		-0.38,	-0.39,		1000000.00,	-1,		1000000.00,		-1,		0.00,
13042021_20:01:59,	0.071,	0.071,		703,		0.068,		-1554,		-0.38,	-0.23,		1000000.00,	-1,		1000000.00,		-1,		0.00,
13042021_20:02:10,	0.071,	0.071,		702,		0.068,		-1555,		-0.38,	-0.04,		1000000.00,	-1,		1000000.00,		-1,		0.00,
13042021_20:02:20,	0.071,	0.071,		701,		0.068,		-1556,		-0.65,	0.13,		1000000.00,	-1,		1000000.00,		-1,		0.00,
13042021_20:02:30,	0.071,	0.071,		700,		0.068,		-1557,		-0.39,	0.14,		1000000.00,	-1,		1000000.00,		-1,		0.00,
13042021_20:02:41,	0.071,	0.071,		699,		0.068,		-1558,		-0.39,	0.01,		1000000.00,	-1,		1000000.00,		-1,		0.00,
13042021_20:02:51,	0.071,	0.071,		698,		0.068,		-1559,		-0.37,	-0.14,		1000000.00,	-1,		1000000.00,		-1,		0.00,
13042021_20:03:01,	0.071,	0.071,		697,		0.068,		-1560,		-0.57,	-0.05,		1000000.00,	-1,		1000000.00,		-1,		0.00,
13042021_20:03:13,	0.071,	0.071,		696,		0.068,		-1561,		-0.55,	0.17,		1000000.00,	-1,		1000000.00,		-1,		0.00,
13042021_20:03:23,	0.071,	0.071,		695,		0.068,		-1562,		-0.55,	0.17,		1000000.00,	-1,		1000000.00,		-1,		0.00,
13042021_20:03:34,	0.071,	0.071,		694,		0.068,		-1563,		-0.55,	0.08,		1000000.00,	-1,		1000000.00,		-1,		0.00,
13042021_20:03:45,	0.071,	0.071,		693,		0.068,		-1564,		-0.47,	-0.05,		1000000.00,	-1,		1000000.00,		-1,		0.00,
13042021_20:03:56,	0.071,	0.071,		692,		0.068,		-1565,		-0.35,	-0.14,		1000000.00,	-1,		1000000.00,		-1,		0.00,
13042021_20:04:07,	0.071,	0.071,		691,		0.068,		-1566,		-0.44,	-0.16,		1000000.00,	-1,		1000000.00,		-1,		0.00,
13042021_20:04:17,	0.071,	0.071,		690,		0.068,		-1567,		-0.18,	-0.20,		1000000.00,	-1,		1000000.00,		-1,		0.00,
13042021_20:04:28,	0.071,	0.071,		689,		0.068,		-1568,		-0.18,	-0.23,		1000000.00,	-1,		1000000.00,		-1,		0.00,
13042021_20:04:38,	0.071,	0.071,		688,		0.068,		-1569,		-0.25,	-0.18,		1000000.00,	-1,		1000000.00,		-1,		0.00,
13042021_20:04:48,	0.071,	0.071,		687,		0.068,		-1570,		-0.20,	-0.09,		1000000.00,	-1,		1000000.00,		-1,		0.00,
13042021_20:04:59,	0.071,	0.071,		686,		0.068,		-1571,		-0.21,	0.02,		1000000.00,	-1,		1000000.00,		-1,		0.00,
13042021_20:05:09,	0.071,	0.071,		685,		0.068,		-1572,		-0.21,	-0.01,		1000000.00,	-1,		1000000.00,		-1,		0.00,
13042021_20:05:19,	0.071,	0.071,		684,		0.068,		-1573,		-0.21,	-0.01,		1000000.00,	-1,		1000000.00,		-1,		0.00,
13042021_20:05:30,	0.071,	0.071,		683,		0.068,		-1574,		-0.54,	0.17,		1000000.00,	-1,		1000000.00,		-1,		0.00,
13042021_20:05:41,	0.071,	0.071,		682,		0.068,		-1575,		-0.54,	0.33,		1000000.00,	-1,		1000000.00,		-1,		0.00,
13042021_20:05:53,	0.071,	0.071,		681,		0.068,		-1576,		-0.47,	0.29,		1000000.00,	-1,		1000000.00,		-1,		0.00,
13042021_20:06:04,	0.071,	0.071,		680,		0.068,		-1577,		-0.53,	0.13,		1000000.00,	-1,		1000000.00,		-1,		0.00,
13042021_20:06:15,	0.071,	0.071,		679,		0.068,		-1578,		-0.48,	-0.03,		1000000.00,	-1,		1000000.00,		-1,		0.00,
13042021_20:06:25,	0.071,	0.071,		678,		0.068,		-1579,		-0.48,	-0.02,		1000000.00,	-1,		1000000.00,		-1,		0.00,
13042021_20:06:35,	0.071,	0.071,		677,		0.068,		-1580,		-0.20,	-0.16,		1000000.00,	-1,		1000000.00,		-1,		0.00,
13042021_20:06:46,	0.071,	0.071,		676,		0.068,		-1581,		-0.20,	-0.30,		1000000.00,	-1,		1000000.00,		-1,		0.00,
13042021_20:06:56,	0.071,	0.071,		675,		0.068,		-1582,		-0.18,	-0.29,		1000000.00,	-1,		1000000.00,		-1,		0.00,
13042021_20:07:06,	0.071,	0.071,		674,		0.068,		-1583,		-0.16,	-0.17,		1000000.00,	-1,		1000000.00,		-1,		0.00,
13042021_20:07:17,	0.071,	0.071,		673,		0.068,		-1584,		-0.38,	0.06,		1000000.00,	-1,		1000000.00,		-1,		0.00,
13042021_20:07:27,	0.071,	0.071,		672,		0.068,		-1585,		-0.38,	0.18,		1000000.00,	-1,		1000000.00,		-1,		0.00,
13042021_20:07:38,	0.071,	0.071,		671,		0.068,		-1586,		-0.38,	0.21,		1000000.00,	-1,		1000000.00,		-1,		0.00,
13042021_20:07:49,	0.071,	0.071,		670,		0.068,		-1587,		-0.38,	0.11,		1000000.00,	-1,		1000000.00,		-1,		0.00,
13042021_20:08:01,	0.071,	0.071,		669,		0.068,		-1588,		-0.18,	-0.10,		1000000.00,	-1,		1000000.00,		-1,		0.00,
13042021_20:08:11,	0.071,	0.071,		668,		0.068,		-1589,		-0.11,	-0.23,		1000000.00,	-1,		1000000.00,		-1,		0.00,
13042021_20:08:22,	0.071,	0.071,		667,		0.068,		-1590,		-0.39,	-0.13,		1000000.00,	-1,		1000000.00,		-1,		0.00,
13042021_20:08:32,	0.071,	0.071,		666,		0.068,		-1591,		-0.33,	0.08,		1000000.00,	-1,		1000000.00,		-1,		0.00,
13042021_20:08:42,	0.071,	0.071,		665,		0.068,		-1592,		-0.16,	0.10,		1000000.00,	-1,		1000000.00,		-1,		0.00,
13042021_20:08:53,	0.071,	0.071,		664,		0.068,		-1593,		-0.34,	-0.00,		1000000.00,	-1,		1000000.00,		-1,		0.00,
13042021_20:09:03,	0.071,	0.071,		663,		0.068,		-1594,		-0.34,	-0.02,		1000000.00,	-1,		1000000.00,		-1,		0.00,
13042021_20:09:14,	0.071,	0.071,		662,		0.068,		-1595,		-0.16,	0.00,		1000000.00,	-1,		1000000.00,		-1,		0.00,
13042021_20:09:24,	0.071,	0.071,		661,		0.068,		-1596,		-0.21,	-0.06,		1000000.00,	-1,		1000000.00,		-1,		0.00,
13042021_20:09:34,	0.071,	0.071,		660,		0.068,		-1597,		-0.25,	-0.11,		1000000.00,	-1,		1000000.00,		-1,		0.00,
13042021_20:09:45,	0.071,	0.071,		659,		0.068,		-1598,		-0.51,	0.13,		1000000.00,	-1,		1000000.00,		-1,		0.00,
13042021_20:09:57,	0.071,	0.071,		658,		0.068,		-1599,		-0.50,	0.32,		1000000.00,	-1,		1000000.00,		-1,		0.00,
13042021_20:10:08,	0.071,	0.071,		657,		0.068,		-1600,		-0.50,	0.27,		1000000.00,	-1,		1000000.00,		-1,		0.00,
13042021_20:10:18,	0.071,	0.071,		656,		0.068,		-1601,		-0.25,	-0.00,		1000000.00,	-1,		1000000.00,		-1,		0.00,
13042021_20:10:28,	0.071,	0.071,		655,		0.068,		-1602,		-0.25,	-0.26,		1000000.00,	-1,		1000000.00,		-1,		0.00,
13042021_20:10:39,	0.071,	0.071,		654,		0.068,		-1603,		-0.27,	-0.24,		1000000.00,	-1,		1000000.00,		-1,		0.00,
13042021_20:10:49,	0.071,	0.071,		653,		0.068,		-1604,		-0.47,	-0.00,		1000000.00,	-1,		1000000.00,		-1,		0.00,
13042021_20:10:59,	0.071,	0.071,		652,		0.068,		-1605,		-0.47,	0.23,		1000000.00,	-1,		1000000.00,		-1,		0.00,
13042021_20:11:10,	0.071,	0.071,		651,		0.068,		-1606,		-0.18,	0.07,		1000000.00,	-1,		1000000.00,		-1,		0.00,
13042021_20:11:20,	0.071,	0.071,		650,		0.068,		-1607,		-0.18,	-0.19,		1000000.00,	-1,		1000000.00,		-1,		0.00,
13042021_20:11:31,	0.071,	0.071,		649,		0.068,		-1608,		-0.17,	-0.30,		1000000.00,	-1,		1000000.00,		-1,		0.00,
13042021_20:11:41,	0.071,	0.071,		648,		0.068,		-1609,		-0.23,	-0.13,		1000000.00,	-1,		1000000.00,		-1,		0.00,
13042021_20:11:53,	0.071,	0.071,		647,		0.068,		-1610,		-0.20,	0.03,		1000000.00,	-1,		1000000.00,		-1,		0.00,
13042021_20:12:04,	0.071,	0.071,		646,		0.068,		-1611,		-0.20,	0.02,		1000000.00,	-1,		1000000.00,		-1,		0.00,
13042021_20:12:14,	0.071,	0.071,		645,		0.068,		-1612,		-0.22,	0.01,		1000000.00,	-1,		1000000.00,		-1,		0.00,
13042021_20:12:25,	0.071,	0.071,		644,		0.068,		-1613,		-0.37,	0.08,		1000000.00,	-1,		1000000.00,		-1,		0.00,
13042021_20:12:35,	0.071,	0.071,		643,		0.068,		-1614,		-0.37,	0.17,		1000000.00,	-1,		1000000.00,		-1,		0.00,
13042021_20:12:46,	0.071,	0.071,		642,		0.068,		-1615,		-0.29,	0.12,		1000000.00,	-1,		1000000.00,		-1,		0.00,
13042021_20:12:56,	0.071,	0.071,		641,		0.068,		-1616,		-0.51,	0.11,		1000000.00,	-1,		1000000.00,		-1,		0.00,
13042021_20:13:07,	0.071,	0.071,		640,		0.068,		-1617,		-0.51,	0.14,		1000000.00,	-1,		1000000.00,		-1,		0.00,
13042021_20:13:17,	0.071,	0.071,		639,		0.068,		-1618,		-0.51,	0.18,		1000000.00,	-1,		1000000.00,		-1,		0.00,
13042021_20:13:27,	0.071,	0.071,		638,		0.068,		-1619,		-0.43,	0.07,		1000000.00,	-1,		1000000.00,		-1,		0.00,
13042021_20:13:38,	0.071,	0.071,		637,		0.068,		-1620,		-0.43,	-0.07,		1000000.00,	-1,		1000000.00,		-1,		0.00,
13042021_20:13:48,	0.071,	0.071,		636,		0.068,		-1621,		-0.43,	-0.07,		1000000.00,	-1,		1000000.00,		-1,		0.00,
13042021_20:14:00,	0.071,	0.071,		635,		0.068,		-1622,		-0.43,	-0.04,		1000000.00,	-1,		1000000.00,		-1,		0.00,
13042021_20:14:10,	0.071,	0.071,		634,		0.068,		-1623,		-0.26,	-0.09,		1000000.00,	-1,		1000000.00,		-1,		0.00,
13042021_20:14:21,	0.071,	0.071,		633,		0.068,		-1624,		-0.18,	-0.21,		1000000.00,	-1,		1000000.00,		-1,		0.00,
13042021_20:14:31,	0.071,	0.071,		632,		0.068,		-1625,		-0.18,	-0.25,		1000000.00,	-1,		1000000.00,		-1,		0.00,
13042021_20:14:41,	0.071,	0.071,		631,		0.068,		-1626,		-0.18,	-0.17,		1000000.00,	-1,		1000000.00,		-1,		0.00,
13042021_20:14:52,	0.071,	0.071,		630,		0.068,		-1627,		-0.20,	-0.03,		1000000.00,	-1,		1000000.00,		-1,		0.00,
13042021_20:15:02,	0.071,	0.071,		629,		0.068,		-1628,		-0.17,	-0.00,		1000000.00,	-1,		1000000.00,		-1,		0.00,
13042021_20:15:13,	0.071,	0.071,		628,		0.068,		-1629,		-0.17,	-0.01,		1000000.00,	-1,		1000000.00,		-1,		0.00,
13042021_20:15:23,	0.071,	0.071,		627,		0.068,		-1630,		-0.17,	-0.02,		1000000.00,	-1,		1000000.00,		-1,		0.00,
13042021_20:15:33,	0.071,	0.071,		626,		0.068,		-1631,		-0.33,	0.07,		1000000.00,	-1,		1000000.00,		-1,		0.00,
13042021_20:15:44,	0.071,	0.071,		625,		0.068,		-1632,		-0.33,	0.16,		1000000.00,	-1,		1000000.00,		-1,		0.00,
13042021_20:15:56,	0.071,	0.071,		624,		0.068,		-1633,		-0.04,	0.02,		1000000.00,	-1,		1000000.00,		-1,		0.00,
13042021_20:16:08,	0.071,	0.071,		623,		0.068,		-1634,		-0.04,	-0.21,		1000000.00,	-1,		1000000.00,		-1,		0.00,
13042021_20:16:18,	0.071,	0.071,		622,		0.068,		-1635,		-0.32,	-0.15,		1000000.00,	-1,		1000000.00,		-1,		0.00,
13042021_20:16:28,	0.071,	0.071,		621,		0.068,		-1636,		-0.32,	0.13,		1000000.00,	-1,		1000000.00,		-1,		0.00,
13042021_20:16:39,	0.071,	0.071,		620,		0.068,		-1637,		-0.08,	0.16,		1000000.00,	-1,		1000000.00,		-1,		0.00,
13042021_20:16:49,	0.071,	0.071,		619,		0.068,		-1638,		-0.44,	0.08,		1000000.00,	-1,		1000000.00,		-1,		0.00,
13042021_20:16:59,	0.071,	0.071,		618,		0.068,		-1639,		-0.44,	0.12,		1000000.00,	-1,		1000000.00,		-1,		0.00,
13042021_20:17:10,	0.071,	0.071,		617,		0.068,		-1640,		-0.25,	0.14,		1000000.00,	-1,		1000000.00,		-1,		0.00,
13042021_20:17:20,	0.071,	0.071,		616,		0.068,		-1641,		-0.25,	-0.02,		1000000.00,	-1,		1000000.00,		-1,		0.00,
13042021_20:17:31,	0.071,	0.071,		615,		0.068,		-1642,		-0.25,	-0.20,		1000000.00,	-1,		1000000.00,		-1,		0.00,
13042021_20:17:41,	0.071,	0.071,		614,		0.068,		-1643,		-0.25,	-0.10,		1000000.00,	-1,		1000000.00,		-1,		0.00,
13042021_20:17:52,	0.071,	0.071,		613,		0.068,		-1644,		-0.40,	0.07,		1000000.00,	-1,		1000000.00,		-1,		0.00,
13042021_20:18:04,	0.071,	0.071,		612,		0.068,		-1645,		-0.26,	0.08,		1000000.00,	-1,		1000000.00,		-1,		0.00,
13042021_20:18:14,	0.071,	0.071,		611,		0.068,		-1646,		-0.55,	0.16,		1000000.00,	-1,		1000000.00,		-1,		0.00,
13042021_20:18:25,	0.071,	0.071,		610,		0.068,		-1647,		-0.55,	0.22,		1000000.00,	-1,		1000000.00,		-1,		0.00,
13042021_20:18:35,	0.071,	0.071,		609,		0.068,		-1648,		-0.57,	0.23,		1000000.00,	-1,		1000000.00,		-1,		0.00,
13042021_20:18:45,	0.071,	0.071,		608,		0.068,		-1649,		-0.29,	0.03,		1000000.00,	-1,		1000000.00,		-1,		0.00,
13042021_20:18:56,	0.071,	0.071,		607,		0.068,		-1650,		-0.29,	-0.26,		1000000.00,	-1,		1000000.00,		-1,		0.00,
13042021_20:19:06,	0.071,	0.071,		606,		0.068,		-1651,		-0.80,	-0.01,		1000000.00,	-1,		1000000.00,		-1,		0.00,
13042021_20:19:17,	0.071,	0.071,		605,		0.068,		-1652,		-0.97,	0.46,		1000000.00,	-1,		1000000.00,		-1,		0.00,
13042021_20:19:27,	0.071,	0.071,		604,		0.068,		-1653,		-0.97,	0.68,		1000000.00,	-1,		1000000.00,		-1,		0.00,
13042021_20:19:37,	0.071,	0.071,		603,		0.068,		-1654,		-0.97,	0.42,		1000000.00,	-1,		1000000.00,		-1,		0.00,
13042021_20:19:48,	0.071,	0.071,		602,		0.068,		-1655,		-0.89,	0.04,		1000000.00,	-1,		1000000.00,		-1,		0.00,
13042021_20:20:00,	0.071,	0.071,		601,		0.068,		-1656,		-0.89,	-0.08,		1000000.00,	-1,		1000000.00,		-1,		0.00,
13042021_20:20:10,	0.070,	0.071,		600,		0.068,		-1657,		-1.15,	0.06,		1000000.00,	-1,		1000000.00,		-1,		0.00,
13042021_20:20:21,	0.070,	0.071,		599,		0.068,		-1658,		-1.10,	0.20,		1000000.00,	-1,		1000000.00,		-1,		0.00,